Pecs, Hungary

12:53 PM CEST on June 27, 2017 (GMT +0200)
Pecs

Weather History for LHPP - January, 2014

Change the Weather History Date:

Sunday, January 26, 2014

  Actual Average Record
Temperature  
Mean Temperature 13 °F -  
Max Temperature 21 °F 40 °F - ()
Min Temperature 5 °F 28 °F - ()
Degree Days  
Heating Degree Days 52    
Moisture  
Dew Point 10 °F    
Average Humidity 74    
Maximum Humidity 85    
Minimum Humidity 57    
Precipitation  
Precipitation 0.00 in 0.04 in - ()
Sea Level Pressure  
Sea Level Pressure 29.92 in    
Wind  
Wind Speed 6 mph ()    
Max Wind Speed 13 mph    
Max Gust Speed -    
Visibility 5.8 miles    
Events      
T = Trace of Precipitation, MM = Missing Value Source: Averaged Metar Reports

Daily Weather History Graph

Daily Weather History Graph

Search for Another Location

Airport or City:

Trip Planner

Search our weather history database for the weather conditions in past years. The results will help you decide how hot, cold, wet, or windy it might be!

Date:

Astronomy

Jan. 26, 2014 Rise Set
Actual Time 7:16 AM CET 4:43 PM CET
Civil Twilight 6:43 AM CET 5:15 PM CET
Nautical Twilight 6:07 AM CET 5:52 PM CET
Astronomical Twilight 5:32 AM CET 6:27 PM CET
Moon 2:34 AM CET (1/26) 12:16 PM CET (1/26)
Length of Visible Light 10h 32m
Length of Day
9h 27m
Waning Crescent, 26% of the Moon is Illuminated
Jan 26
Waning Crescent
Jan 30
New
Feb 6
First Quarter
Feb 15
Full
Feb 22
Last Quarter

Hourly Weather History & Observations

Time (CET) Temp. Windchill Dew Point Humidity Pressure Visibility Wind Dir Wind Speed Gust Speed Precip Events Conditions
12:00 AM 16 °F - 8 °F 61% 30.01 in 12 mi West 8.9 mph - -   Partly Cloudy
12:45 AM 14.0 °F -0.2 °F 8.6 °F 79% 29.92 in - WNW 12.7 mph - N/A   Clear
1:00 AM 15 °F - 8 °F 64% 29.99 in 12 mi WNW 13.4 mph - -   Partly Cloudy
1:45 AM 14.0 °F 2.0 °F 6.8 °F 73% 29.92 in - WNW 9.2 mph - N/A   Clear
2:00 AM 13 °F - 7 °F 69% 29.98 in 12 mi WNW 8.9 mph - -   Partly Cloudy
2:45 AM 12.2 °F -0.2 °F 6.8 °F 79% 29.89 in - WNW 9.2 mph - N/A   Clear
3:00 AM 12 °F - 6 °F 68% 29.96 in 12 mi WNW 8.9 mph - -   Partly Cloudy
3:45 AM 12.2 °F 0.7 °F 6.8 °F 79% 29.89 in 6.2 mi West 8.1 mph - N/A   Mostly Cloudy
4:00 AM 11 °F - 6 °F 74% 29.95 in 12 mi West 6.7 mph - -   Partly Cloudy
4:39 AM 12.2 °F -1.0 °F 6.8 °F 79% 29.95 in 6.2 mi WNW 10.4 mph - N/A   Overcast
4:45 AM 12.2 °F -1.0 °F 6.8 °F 79% 29.89 in 6.2 mi WNW 10.4 mph - N/A   Overcast
5:00 AM 12 °F - 7 °F 70% 29.95 in 9 mi WNW 8.9 mph - -   Partly Cloudy
5:15 AM 12.2 °F -0.2 °F 6.8 °F 79% 29.86 in 6.2 mi NW 9.2 mph - N/A   Mostly Cloudy
5:45 AM 12.2 °F 2.9 °F 5.0 °F 73% 29.86 in 6.2 mi NNE 5.8 mph - N/A   Scattered Clouds
6:00 AM 11 °F - 6 °F 70% 29.93 in 9 mi NNE 6.7 mph - -   Partly Cloudy
6:00 AM - - - N/A% - 6.2 mi NNW 6.9 mph - N/A   Mostly Cloudy
6:15 AM 8.6 °F 0.1 °F 3.2 °F 79% 29.89 in 6.2 mi WSW 4.6 mph - N/A   Scattered Clouds
6:45 AM 6.8 °F -0.1 °F 3.2 °F 85% 29.89 in 6.2 mi WNW 3.5 mph - N/A   Scattered Clouds
7:00 AM 7 °F - 3 °F 78% 29.96 in 9 mi WNW 4.5 mph - -   Partly Cloudy
7:15 AM 6.8 °F - 1.4 °F 79% 29.89 in 5.0 mi Calm Calm - N/A   Mostly Cloudy
7:45 AM 12.2 °F 6.1 °F 6.8 °F 79% 29.89 in 5.0 mi WNW 3.5 mph - N/A   Mostly Cloudy
8:00 AM 11 °F - 6 °F 74% 29.95 in 5 mi WNW 4.5 mph - -   Partly Cloudy
8:15 AM 8.6 °F 2.0 °F 5.0 °F 85% 29.89 in 5.0 mi West 3.5 mph - N/A   Mostly Cloudy
8:45 AM 14.0 °F 5.1 °F 8.6 °F 79% 29.89 in 5.0 mi WNW 5.8 mph - N/A   Mostly Cloudy
9:00 AM 14 °F - 8 °F 67% 29.96 in 5 mi WNW 4.5 mph - -   Partly Cloudy
9:00 AM - - - N/A% - 6.2 mi Variable 3.5 mph - N/A   Mostly Cloudy
9:15 AM 14.0 °F 8.2 °F 6.8 °F 73% 29.89 in 5.0 mi WSW 3.5 mph - N/A   Mostly Cloudy
9:45 AM 12.2 °F 4.3 °F 6.8 °F 79% 29.89 in 5.0 mi SSW 4.6 mph - N/A   Mostly Cloudy
10:00 AM 12 °F - 7 °F 71% 29.97 in 5 mi SSW 4.5 mph - -   Partly Cloudy
10:15 AM 14.0 °F - 8.6 °F 79% 29.92 in 5.0 mi SW 2.3 mph - N/A   Mostly Cloudy
10:45 AM 17.6 °F - 10.4 °F 73% 29.89 in 5.0 mi Calm Calm - N/A   Mostly Cloudy
11:00 AM 18 °F - 10 °F 58% 29.95 in 5 mi Calm Calm - -   Partly Cloudy
11:15 AM 17.6 °F - 10.4 °F 73% 29.89 in 5.0 mi South 2.3 mph - N/A   Mostly Cloudy
11:45 AM 17.6 °F 10.7 °F 10.4 °F 73% 29.89 in 5.0 mi SW 4.6 mph - N/A   Mostly Cloudy
12:00 PM 17 °F - 10 °F 64% 29.94 in 5 mi SW 4.5 mph - -   Partly Cloudy
12:00 PM - - - N/A% - 2.5 mi Variable 3.5 mph - N/A   Scattered Clouds
12:15 PM 17.6 °F 12.3 °F 10.4 °F 73% 29.89 in 5.0 mi SW 3.5 mph - N/A   Mostly Cloudy
12:45 PM 21.2 °F - 10.4 °F 63% 29.86 in 5.0 mi SW 2.3 mph - N/A   Mostly Cloudy
1:00 PM 20 °F - 11 °F 57% 29.93 in 5 mi SW 2.2 mph - -   Partly Cloudy
1:15 PM 21.2 °F - 12.2 °F 68% 29.86 in 5.0 mi SW 2.3 mph - N/A   Mostly Cloudy
1:45 PM 21.2 °F 16.4 °F 12.2 °F 68% 29.86 in 5.0 mi West 3.5 mph - N/A   Mostly Cloudy
2:00 PM 21 °F - 13 °F 60% 29.92 in 5 mi West 4.5 mph - -   Partly Cloudy
2:15 PM 21.2 °F 16.4 °F 14.0 °F 74% 29.89 in 5.0 mi WSW 3.5 mph - N/A   Mostly Cloudy
2:45 PM 21.2 °F 16.4 °F 14.0 °F 74% 29.86 in 5.0 mi WSW 3.5 mph - N/A   Mostly Cloudy
3:00 PM 21 °F - 13 °F 62% 29.92 in 5 mi WSW 2.2 mph - -   Partly Cloudy
3:00 PM - - - N/A% - 5.0 mi Variable 3.5 mph - N/A   Mostly Cloudy
3:15 PM 21.2 °F - 14.0 °F 74% 29.89 in 5.0 mi Calm Calm - N/A   Mostly Cloudy
3:45 PM 21.2 °F - 14.0 °F 74% 29.89 in 5.0 mi Calm Calm - N/A   Overcast
4:00 PM 21 °F - 15 °F 66% 29.94 in 5 mi Calm Calm - -   Partly Cloudy
4:15 PM 21.2 °F 11.7 °F 14.0 °F 74% 29.89 in 5.0 mi East 8.1 mph - N/A   Overcast
4:45 PM 19.4 °F 10.4 °F 14.0 °F 80% 29.89 in 5.0 mi ENE 6.9 mph - N/A   Overcast
5:00 PM 20 °F - 14 °F 70% 29.96 in 5 mi ENE 6.7 mph - -   Partly Cloudy
5:15 PM 19.4 °F 11.5 °F 14.0 °F 80% 29.92 in 5.0 mi NE 5.8 mph - N/A   Overcast
5:45 PM 19.4 °F 11.5 °F 14.0 °F 80% 29.92 in 5.0 mi ENE 5.8 mph - N/A   Overcast
6:00 PM 20 °F - 15 °F 72% 29.97 in 5 mi ENE 6.7 mph - -   Partly Cloudy
6:00 PM - - - N/A% - 3.7 mi Variable 3.5 mph - N/A   Overcast
6:15 PM 19.4 °F 12.8 °F 14.0 °F 80% 29.92 in 5.0 mi East 4.6 mph - N/A   Overcast
6:45 PM 19.4 °F 12.8 °F 14.0 °F 80% 29.92 in 5.0 mi NE 4.6 mph - N/A   Overcast
7:00 PM 20 °F - 15 °F 72% 29.98 in 5 mi NE 4.5 mph - -   Partly Cloudy
7:15 PM 19.4 °F 12.8 °F 14.0 °F 80% 29.92 in 5.0 mi NNE 4.6 mph - N/A   Overcast
7:45 PM 19.4 °F 12.8 °F 14.0 °F 80% 29.92 in 5.0 mi North 4.6 mph - N/A   Overcast
8:00 PM 20 °F - 14 °F 69% 29.98 in 5 mi North 4.5 mph - -   Partly Cloudy
8:15 PM 19.4 °F 14.3 °F 14.0 °F 80% 29.92 in 5.0 mi NNW 3.5 mph - N/A   Overcast
8:45 PM 19.4 °F 14.3 °F 14.0 °F 80% 29.92 in 5.0 mi North 3.5 mph - N/A   Overcast
9:00 PM 19 °F - 14 °F 74% 29.96 in 5 mi North 2.2 mph - -   Partly Cloudy
9:45 PM 19.4 °F - 14.0 °F 80% 29.89 in 5.0 mi Calm Calm - N/A   Overcast
10:00 PM 19 °F - 14 °F 73% 29.96 in 5 mi Calm Calm - -   Partly Cloudy
10:45 PM 19.4 °F - 14.0 °F 80% 29.89 in 5.0 mi WNW 2.3 mph - N/A   Overcast
11:00 PM 19 °F - 15 °F 75% 29.96 in 5 mi WNW 2.2 mph - -   Partly Cloudy
11:45 PM 19.4 °F - 14.0 °F 80% 29.89 in 5.0 mi Calm Calm - N/A   Overcast